START_TIME,STEP,MOV.,M29,t_acc.,H22,t_acc.,H26,t_acc.,H30,t_acc.
1979-08-04 23:06:30.530 ,0,0,0.,24.0,0.,24.0,0.,24.0,0.,24.0
1979-08-04 23:06:54.530 ,0,0,0.,24.0,0.,24.0,0.,24.0,0.,24.0
1979-08-04 23:08:06.530 ,0,0,0.,24.0,0.,24.0,0.,24.0,0.,24.0
1979-08-04 23:08:30.530 ,0,0,0.,24.0,0.,24.0,0.,24.0,0.,24.0
1979-08-04 23:08:54.530 ,3,1,0.,24.0,0.,24.0,0.,24.0,0.,24.0
1979-08-04 23:09:18.530 ,3,0,0.,24.0,0.,24.0,0.,24.0,0.,24.0
1979-08-04 23:09:42.530 ,2,1,0.,24.0,0.,24.0,0.,24.0,0.,24.0
1979-08-04 23:10:06.530 ,2,0,0.,24.0,0.,24.0,0.,24.0,0.,24.0
1979-08-04 23:10:30.530 ,1,1,0.,24.0,0.,24.0,0.,24.0,0.,24.0
1979-08-04 23:10:54.530 ,1,0,0.,24.0,0.,24.0,0.,24.0,0.,24.0
1979-08-04 23:11:18.530 ,0,1,0.,24.0,0.,24.0,0.,24.0,0.,24.0
1979-08-04 23:11:42.530 ,0,0,0.,24.0,0.,24.0,0.,24.0,0.,24.0
1979-08-04 23:12:06.530 ,0,1,0.,24.0,0.,24.0,0.,24.0,0.,24.0
1979-08-04 23:12:30.530 ,0,0,0.,24.0,0.,24.0,0.,24.0,0.,24.0
1979-08-04 23:12:54.530 ,1,1,0.,24.0,0.,24.0,0.,24.0,0.,24.0
1979-08-04 23:13:18.530 ,1,0,0.,24.0,0.,24.0,0.,24.0,0.,24.0
1979-08-04 23:13:42.530 ,2,1,0.,24.0,0.,24.0,0.,24.0,0.,24.0
1979-08-04 23:14:06.530 ,2,0,0.,24.0,0.,24.0,0.,24.0,0.,24.0
1979-08-04 23:14:30.530 ,3,1,0.,24.0,0.,24.0,0.,24.0,0.,24.0
1979-08-04 23:14:54.530 ,3,0,0.,24.0,0.,24.0,0.,24.0,0.,24.0
1979-08-04 23:15:18.530 ,4,1,0.,24.0,0.,24.0,0.,24.0,0.,24.0
1979-08-04 23:15:42.530 ,4,0,0.,24.0,0.,24.0,0.,24.0,0.,24.0
1979-08-04 23:16:06.530 ,5,1,0.,24.0,0.,24.0,0.,24.0,0.,24.0
1979-08-04 23:16:30.530 ,5,0,0.,24.0,0.,24.0,0.,24.0,0.,24.0
1979-08-04 23:16:54.530 ,6,1,0.,24.0,0.,24.0,0.,24.0,0.,24.0
1979-08-04 23:17:18.530 ,6,0,0.,24.0,0.,24.0,0.,24.0,0.,24.0
1979-08-04 23:17:42.530 ,7,1,0.,24.0,0.,24.0,0.,24.0,0.,24.0
1979-08-04 23:18:06.530 ,7,0,0.,24.0,0.,24.0,0.,24.0,0.,24.0
1979-08-04 23:18:30.530 ,7,1,0.,24.0,0.,24.0,0.,24.0,0.,24.0
1979-08-04 23:18:54.530 ,7,0,0.,24.0,0.,24.0,0.,24.0,0.,24.0
1979-08-04 23:19:18.530 ,6,1,1.,24.0,0.,24.0,0.,24.0,0.,24.0
1979-08-04 23:19:42.530 ,6,0,0.,24.0,0.,24.0,0.,24.0,0.,24.0
1979-08-04 23:20:06.530 ,5,1,0.,24.0,0.,24.0,0.,24.0,0.,24.0
1979-08-04 23:20:30.530 ,5,0,0.,24.0,0.,24.0,0.,24.0,0.,24.0
1979-08-04 23:20:54.530 ,4,1,0.,24.0,0.,24.0,0.,24.0,0.,24.0
1979-08-04 23:21:18.530 ,4,0,0.,24.0,0.,24.0,0.,24.0,0.,24.0
1979-08-04 23:21:42.530 ,3,1,0.,24.0,0.,24.0,0.,24.0,0.,24.0
1979-08-04 23:22:06.530 ,3,0,0.,24.0,0.,24.0,0.,24.0,0.,24.0
1979-08-04 23:22:30.530 ,2,1,0.,24.0,0.,24.0,0.,24.0,0.,24.0
1979-08-04 23:22:54.530 ,2,0,0.,24.0,0.,24.0,0.,24.0,0.,24.0
1979-08-04 23:23:18.530 ,1,1,0.,24.0,0.,24.0,0.,24.0,0.,24.0
1979-08-04 23:23:42.530 ,1,0,0.,24.0,0.,24.0,0.,24.0,0.,24.0
1979-08-04 23:24:06.530 ,0,1,0.,24.0,0.,24.0,0.,24.0,0.,24.0
1979-08-04 23:24:30.530 ,0,0,0.,24.0,0.,24.0,0.,24.0,0.,24.0
1979-08-04 23:24:54.530 ,0,1,0.,24.0,0.,24.0,0.,24.0,0.,24.0
1979-08-04 23:25:18.530 ,0,0,0.,24.0,0.,24.0,0.,24.0,0.,24.0
1979-08-04 23:25:42.530 ,1,1,0.,24.0,0.,24.0,0.,24.0,0.,24.0
1979-08-04 23:26:06.530 ,1,0,0.,24.0,0.,24.0,0.,24.0,0.,24.0
1979-08-04 23:26:30.530 ,2,1,0.,24.0,0.,24.0,0.,24.0,0.,24.0
1979-08-04 23:26:54.530 ,2,0,0.,24.0,0.,24.0,0.,24.0,0.,24.0
1979-08-04 23:27:18.530 ,3,1,0.,24.0,0.,24.0,0.,24.0,0.,24.0
1979-08-04 23:27:42.530 ,3,0,0.,24.0,0.,24.0,0.,24.0,0.,24.0
1979-08-04 23:28:06.530 ,4,1,0.,24.0,0.,24.0,0.,24.0,0.,24.0
1979-08-04 23:28:30.530 ,4,0,0.,24.0,0.,24.0,0.,24.0,0.,24.0
1979-08-04 23:28:54.530 ,5,1,0.,24.0,0.,24.0,0.,24.0,0.,24.0
1979-08-04 23:29:18.530 ,5,0,0.,24.0,0.,24.0,0.,24.0,0.,24.0
1979-08-04 23:29:42.530 ,6,1,0.,24.0,0.,24.0,0.,24.0,0.,24.0
1979-08-04 23:30:06.530 ,6,0,0.,24.0,0.,24.0,0.,24.0,0.,24.0
1979-08-04 23:30:30.530 ,7,0,0.,24.0,0.,24.0,0.,24.0,0.,24.0
1979-08-04 23:30:54.530 ,7,0,0.,24.0,0.,24.0,0.,24.0,0.,24.0
1979-08-04 23:31:18.530 ,5,1,0.,24.0,0.,24.0,0.,24.0,0.,24.0
1979-08-04 23:31:42.530 ,1,1,0.,24.0,0.,24.0,0.,24.0,0.,24.0
1979-08-04 23:32:06.530 ,2,1,1.,24.0,0.,24.0,0.,24.0,0.,24.0
1979-08-04 23:32:30.530 ,6,1,0.,24.0,0.,24.0,0.,24.0,0.,24.0
1979-08-04 23:32:54.530 ,5,1,0.,24.0,0.,24.0,0.,24.0,0.,24.0
1979-08-04 23:33:18.530 ,1,1,0.,24.0,0.,24.0,0.,24.0,0.,24.0
1979-08-04 23:33:42.530 ,2,1,0.,24.0,0.,24.0,0.,24.0,0.,24.0
1979-08-04 23:34:06.530 ,6,1,0.,24.0,0.,24.0,0.,24.0,0.,24.0
1979-08-04 23:34:30.530 ,5,1,0.,24.0,0.,24.0,0.,24.0,0.,24.0
1979-08-04 23:34:54.530 ,1,1,0.,24.0,0.,24.0,0.,24.0,0.,24.0
1979-08-04 23:35:18.530 ,2,1,0.,24.0,0.,24.0,0.,24.0,0.,24.0
1979-08-04 23:35:42.530 ,6,1,0.,24.0,0.,24.0,0.,24.0,0.,24.0
1979-08-04 23:36:06.530 ,5,1,0.,24.0,0.,24.0,0.,24.0,0.,24.0
1979-08-04 23:36:30.530 ,1,1,0.,24.0,0.,24.0,0.,24.0,0.,24.0
1979-08-04 23:36:54.530 ,2,1,0.,24.0,0.,24.0,0.,24.0,0.,24.0
1979-08-04 23:37:18.530 ,6,1,0.,24.0,0.,24.0,0.,24.0,0.,24.0
1979-08-04 23:37:42.530 ,5,1,0.,24.0,0.,24.0,0.,24.0,0.,24.0
1979-08-04 23:38:06.530 ,1,1,0.,24.0,0.,24.0,0.,24.0,0.,24.0
1979-08-04 23:38:30.530 ,2,1,0.,24.0,0.,24.0,0.,24.0,0.,24.0
1979-08-04 23:38:54.530 ,6,1,0.,24.0,0.,24.0,0.,24.0,0.,24.0
1979-08-04 23:39:18.530 ,5,1,0.,24.0,0.,24.0,0.,24.0,0.,24.0
1979-08-04 23:39:42.530 ,1,1,0.,24.0,0.,24.0,0.,24.0,0.,24.0
1979-08-04 23:40:06.530 ,2,1,0.,24.0,0.,24.0,0.,24.0,0.,24.0
1979-08-04 23:40:30.530 ,6,1,0.,24.0,0.,24.0,0.,24.0,0.,24.0
1979-08-04 23:40:54.530 ,5,1,0.,24.0,0.,24.0,0.,24.0,0.,24.0
1979-08-04 23:41:18.530 ,1,1,0.,24.0,0.,24.0,0.,24.0,0.,24.0
1979-08-04 23:41:42.530 ,0,0,0.,24.0,0.,24.0,0.,24.0,0.,24.0
1979-08-04 23:42:06.530 ,0,0,0.,24.0,0.,24.0,0.,24.0,0.,24.0
1979-08-04 23:42:30.530 ,5,1,0.,24.0,0.,24.0,0.,24.0,0.,24.0
1979-08-04 23:42:54.530 ,5,0,0.,24.0,0.,24.0,0.,24.0,0.,24.0
1979-08-04 23:43:18.530 ,4,1,0.,24.0,0.,24.0,0.,24.0,0.,24.0
1979-08-04 23:43:42.530 ,4,0,0.,24.0,0.,24.0,0.,24.0,0.,24.0
1979-08-04 23:44:06.530 ,3,1,0.,24.0,0.,24.0,0.,24.0,0.,24.0
1979-08-04 23:44:30.530 ,3,0,0.,24.0,0.,24.0,0.,24.0,0.,24.0
1979-08-04 23:44:54.530 ,2,1,0.,24.0,0.,24.0,0.,24.0,0.,24.0
1979-08-04 23:45:18.530 ,2,0,0.,24.0,0.,24.0,0.,24.0,0.,24.0
1979-08-04 23:45:42.530 ,1,1,0.,24.0,0.,24.0,0.,24.0,0.,24.0
1979-08-04 23:46:06.530 ,1,0,0.,24.0,0.,24.0,0.,24.0,0.,24.0
1979-08-04 23:46:30.530 ,0,1,0.,24.0,0.,24.0,0.,24.0,0.,24.0
1979-08-04 23:46:54.530 ,0,0,0.,24.0,0.,24.0,0.,24.0,0.,24.0
1979-08-04 23:47:18.530 ,0,1,0.,24.0,0.,24.0,0.,24.0,0.,24.0
1979-08-04 23:47:42.530 ,0,0,0.,24.0,0.,24.0,0.,24.0,0.,24.0
1979-08-04 23:48:06.530 ,1,1,0.,24.0,0.,24.0,0.,24.0,0.,24.0
1979-08-04 23:48:30.530 ,1,0,0.,24.0,0.,24.0,0.,24.0,0.,24.0
1979-08-04 23:48:54.530 ,2,1,0.,24.0,0.,24.0,0.,24.0,0.,24.0
1979-08-04 23:49:18.530 ,2,0,0.,24.0,0.,24.0,0.,24.0,0.,24.0
1979-08-04 23:49:42.530 ,3,1,0.,24.0,0.,24.0,0.,24.0,0.,24.0
1979-08-04 23:50:06.530 ,3,0,0.,24.0,0.,24.0,0.,24.0,0.,24.0
1979-08-04 23:50:30.530 ,4,1,0.,24.0,0.,24.0,0.,24.0,0.,24.0
1979-08-04 23:50:54.530 ,4,0,0.,24.0,0.,24.0,0.,24.0,0.,24.0
1979-08-04 23:51:18.530 ,5,1,0.,24.0,0.,24.0,0.,24.0,0.,24.0
1979-08-04 23:51:42.530 ,5,0,0.,24.0,0.,24.0,0.,24.0,0.,24.0
1979-08-04 23:52:06.530 ,6,1,0.,24.0,0.,24.0,0.,24.0,0.,24.0
1979-08-04 23:52:30.530 ,6,0,0.,24.0,0.,24.0,0.,24.0,0.,24.0
1979-08-04 23:52:54.530 ,7,1,0.,24.0,0.,24.0,0.,24.0,0.,24.0
1979-08-04 23:53:18.530 ,7,0,0.,24.0,0.,24.0,0.,24.0,0.,24.0
1979-08-04 23:53:42.530 ,7,1,0.,24.0,0.,24.0,0.,24.0,0.,24.0
1979-08-04 23:54:06.530 ,7,0,0.,24.0,0.,24.0,0.,24.0,0.,24.0
1979-08-04 23:54:30.530 ,6,1,0.,24.0,0.,24.0,0.,24.0,0.,24.0
1979-08-04 23:54:54.530 ,6,0,0.,24.0,0.,24.0,0.,24.0,0.,24.0
1979-08-04 23:55:18.530 ,5,1,0.,24.0,0.,24.0,0.,24.0,0.,24.0
1979-08-04 23:55:42.530 ,5,0,0.,24.0,0.,24.0,0.,24.0,0.,24.0
1979-08-04 23:56:06.530 ,4,1,0.,24.0,0.,24.0,0.,24.0,0.,24.0
1979-08-04 23:56:30.530 ,4,0,0.,24.0,0.,24.0,0.,24.0,0.,24.0
1979-08-04 23:56:54.530 ,3,1,0.,24.0,0.,24.0,0.,24.0,0.,24.0
1979-08-04 23:57:18.530 ,3,0,0.,24.0,0.,24.0,0.,24.0,0.,24.0
1979-08-04 23:57:42.530 ,2,1,0.,24.0,0.,24.0,0.,24.0,0.,24.0
1979-08-04 23:58:06.530 ,2,0,0.,24.0,0.,24.0,0.,24.0,0.,24.0
1979-08-04 23:58:30.530 ,1,1,0.,24.0,0.,24.0,0.,24.0,0.,24.0
1979-08-04 23:58:54.530 ,1,0,0.,24.0,0.,24.0,0.,24.0,0.,24.0
1979-08-04 23:59:18.530 ,0,1,0.,24.0,0.,24.0,0.,24.0,0.,24.0
1979-08-04 23:59:42.530 ,0,0,0.,24.0,0.,24.0,0.,24.0,0.,24.0
1979-08-05 00:00:06.530 ,0,1,0.,24.0,0.,24.0,0.,24.0,0.,24.0
